Date String (YYYY-MM-DD hh:mm:ss) UTC,Instrument flags,Ambient pressure (hPa),Sample flow (lpm),Bypass flow (lpm),Sample temperature (°C),Ambient temperature (°C),ASC tube jacket temperature (°C),LED temperature (°C),Box temperature (°C),Sample RH (%),Span deviation,Mass concentration (μg/m³),Mass concentration (μg/m³),Mass concentration (μg/m³)
DateTimeUTC,F1_M11,P_M11,Q1_M11,Q2_M11,T1_M11,T2_M11,T3_M11,T4_M11,T5_M11,U1_M11,ZSPAN_M11,X0_M11,X2_M11,X1_M11
2022-12-20 11:00:00,,0829.3,5.02,0.00,21.6,21.1,00.0,30.5,23.4,06.6,0000.0,0013.81,0005.35,0004.52
2022-12-20 11:01:00,,0829.1,4.98,0.00,21.7,21.7,00.0,30.5,23.6,06.5,0000.0,0013.86,0005.39,0004.53
2022-12-20 11:02:00,,0829.3,4.98,0.00,21.7,21.4,00.0,30.6,23.7,06.5,0001.7,0013.45,0005.42,0004.55
2022-12-20 11:03:00,,0829.3,5.03,0.00,21.7,21.1,00.0,30.6,23.6,06.5,0002.8,0012.76,0005.40,0004.56
2022-12-20 11:04:00,,0829.3,4.96,0.00,21.7,20.9,00.0,30.6,23.5,06.4,0000.0,0012.22,0005.38,0004.57
2022-12-20 11:05:00,,0829.3,5.04,0.00,21.7,20.7,00.0,30.6,23.5,06.4,0000.0,0011.54,0005.37,0004.58
2022-12-20 11:06:00,,0829.2,5.00,0.00,21.7,20.6,00.0,30.6,23.5,06.4,0000.0,0011.45,0005.32,0004.58
2022-12-20 11:07:00,,0829.3,4.99,0.00,21.7,20.5,00.0,30.6,23.5,06.4,0000.0,0010.78,0005.24,0004.57
2022-12-20 11:08:00,,0829.0,5.03,0.00,21.7,20.5,00.0,30.6,23.5,06.4,0000.0,0011.11,0005.18,0004.57
2022-12-20 11:09:00,,0828.7,4.95,0.00,21.7,20.4,00.0,30.6,23.5,06.5,0000.0,0011.33,0005.18,0004.57
2022-12-20 11:10:00,,0829.1,5.04,0.00,21.7,20.3,00.0,30.6,23.5,06.5,0000.0,0011.08,0005.14,0004.54
2022-12-20 11:11:00,,0828.7,4.96,0.00,21.7,20.3,00.0,30.6,23.5,06.3,0000.0,0010.95,0005.09,0004.49
2022-12-20 11:12:00,,0828.8,5.02,0.00,21.7,20.2,00.0,30.6,23.4,06.4,0000.0,0011.20,0005.01,0004.43
2022-12-20 11:13:00,,0828.6,5.02,0.00,21.7,20.1,00.0,30.6,23.4,06.6,0000.0,0011.94,0005.05,0004.45
2022-12-20 11:14:00,,0828.9,4.95,0.00,21.6,20.0,00.0,30.6,23.3,06.6,0000.0,0011.73,0005.08,0004.48
2022-12-20 11:15:00,,0828.7,5.04,0.00,21.6,20.3,00.0,30.5,23.3,06.7,0000.0,0011.79,0005.15,0004.51
2022-12-20 11:16:00,,0828.7,4.97,0.00,21.7,21.3,00.0,30.5,23.6,06.7,0000.0,0012.43,0005.24,0004.55
2022-12-20 11:17:00,,0829.0,5.03,0.00,21.8,22.0,00.0,30.5,23.8,06.8,0000.0,0012.56,0005.34,0004.61
2022-12-20 11:18:00,,0828.5,4.97,0.00,21.9,21.5,00.0,30.6,23.7,06.8,0000.0,0013.37,0005.43,0004.67
2022-12-20 11:19:00,,0828.7,5.03,0.00,21.8,21.1,00.0,30.6,23.6,06.4,0000.0,0014.08,0005.46,0004.66
2022-12-20 11:20:00,,0828.8,4.95,0.00,21.8,20.8,00.0,30.6,23.5,06.4,0000.0,0014.09,0005.41,0004.60
2022-12-20 11:21:00,,0829.0,5.04,0.00,21.8,20.6,00.0,30.6,23.5,06.7,0000.0,0014.48,0005.43,0004.62
2022-12-20 11:22:00,,0828.5,4.98,0.00,21.8,20.5,00.0,30.6,23.5,06.7,0000.0,0015.04,0005.56,0004.70
2022-12-20 11:23:00,,0828.6,5.01,0.00,21.8,20.4,00.0,30.6,23.5,06.7,0000.0,0015.76,0005.70,0004.80
2022-12-20 11:24:00,,0829.1,5.02,0.00,21.8,20.4,00.0,30.6,23.5,06.6,0000.0,0015.05,0005.66,0004.77
2022-12-20 11:25:00,,0829.1,4.95,0.00,21.8,20.4,00.0,30.6,23.5,06.4,0000.0,0014.94,0005.58,0004.71
2022-12-20 11:26:00,,0829.1,5.02,0.00,21.8,20.3,00.0,30.6,23.5,06.4,0000.0,0014.77,0005.45,0004.62
2022-12-20 11:27:00,,0828.7,4.97,0.00,21.7,20.3,00.0,30.6,23.5,06.6,0000.0,0014.65,0005.47,0004.61
2022-12-20 11:28:00,,0828.9,5.02,0.00,21.7,20.3,00.0,30.6,23.5,06.6,0000.0,0015.47,0005.43,0004.57
2022-12-20 11:29:00,,0829.0,5.03,0.00,21.7,20.2,00.0,30.6,23.5,06.7,0000.0,0015.17,0005.40,0004.56
2022-12-20 11:30:00,,0829.1,4.96,0.00,21.7,20.6,00.0,30.6,23.5,06.5,0000.0,0013.79,0005.40,0004.55
2022-12-20 11:31:00,,0828.8,5.04,0.00,21.8,21.6,00.0,30.5,23.8,06.5,0000.0,0013.30,0005.39,0004.56
2022-12-20 11:32:00,,0828.5,4.98,0.00,22.0,22.1,00.0,30.6,24.0,06.4,0000.0,0012.86,0005.30,0004.50
2022-12-20 11:33:00,,0828.8,4.97,0.00,22.0,21.7,00.0,30.6,23.9,06.4,0000.0,0012.22,0005.19,0004.43
2022-12-20 11:34:00,,0829.1,5.03,0.00,22.0,21.2,00.0,30.7,23.8,06.5,0000.0,0011.86,0005.19,0004.38
2022-12-20 11:35:00,,0829.0,4.99,0.00,21.9,20.8,00.0,30.7,23.6,06.6,0000.0,0012.63,0005.23,0004.41
2022-12-20 11:36:00,,0828.9,5.00,0.00,21.8,20.3,00.0,30.7,23.4,06.7,0000.0,0013.00,0005.31,0004.48
2022-12-20 11:37:00,,0828.8,5.04,0.00,21.7,19.9,00.0,30.7,23.3,06.8,0000.0,0013.72,0005.41,0004.59
2022-12-20 11:38:00,,0829.0,4.98,0.00,21.7,19.8,00.0,30.6,23.2,06.8,0000.0,0014.51,0005.38,0004.60
2022-12-20 11:39:00,,0828.8,4.99,0.00,21.6,19.8,00.0,30.6,23.2,06.7,0000.0,0013.81,0005.38,0004.61
2022-12-20 11:40:00,,0828.8,5.04,0.00,21.6,19.9,00.0,30.6,23.3,06.7,0000.0,0013.02,0005.33,0004.58
2022-12-20 11:41:00,,0828.8,4.95,0.00,21.6,19.9,00.0,30.6,23.3,06.7,0000.0,0013.04,0005.33,0004.58
2022-12-20 11:42:00,,0828.5,5.04,0.00,21.6,19.9,00.0,30.6,23.3,06.6,0000.0,0012.77,0005.33,0004.58
2022-12-20 11:43:00,,0828.5,5.02,0.00,21.6,20.6,00.0,30.5,23.4,06.5,0000.0,0012.34,0005.28,0004.55
2022-12-20 11:44:00,,0828.7,4.99,0.00,21.7,21.7,00.0,30.5,23.7,06.5,0000.0,0012.30,0005.22,0004.53
2022-12-20 11:45:00,,0829.0,4.98,0.00,21.9,22.1,00.0,30.5,23.9,06.5,0000.0,0012.15,0005.13,0004.50
2022-12-20 11:46:00,,0829.0,5.04,0.00,21.9,21.7,00.0,30.6,23.8,06.5,0000.0,0011.05,0005.04,0004.47
2022-12-20 11:47:00,,0828.7,4.98,0.00,21.9,21.3,00.0,30.6,23.8,06.6,0000.0,0010.78,0004.99,0004.42
2022-12-20 11:48:00,,0828.9,5.01,0.00,21.9,21.0,00.0,30.6,23.7,06.6,0000.0,0010.12,0004.96,0004.38
2022-12-20 11:49:00,,0829.0,5.00,0.00,21.8,20.6,00.0,30.7,23.6,06.6,0000.0,0009.01,0004.88,0004.34
2022-12-20 11:50:00,,0828.9,5.03,0.00,21.8,20.5,00.0,30.7,23.5,06.6,0000.0,0008.53,0004.82,0004.31
2022-12-20 11:51:00,,0828.9,4.95,0.00,21.8,20.4,00.0,30.7,23.5,06.4,0000.0,0008.57,0004.77,0004.25
2022-12-20 11:52:00,,0828.8,5.04,0.00,21.8,20.4,00.0,30.6,23.5,06.2,0000.0,0008.33,0004.65,0004.16
2022-12-20 11:53:00,,0828.9,5.01,0.00,21.8,20.4,00.0,30.6,23.6,06.2,0000.0,0008.11,0004.54,0004.08
2022-12-20 11:54:00,,0829.0,4.98,0.00,21.8,20.4,00.0,30.6,23.6,06.0,0000.0,0008.01,0004.45,0004.00
2022-12-20 11:55:00,,0829.1,5.02,0.00,21.8,20.4,00.0,30.6,23.6,06.0,0000.0,0007.82,0004.35,0003.91
2022-12-20 11:56:00,,0828.7,4.95,0.00,21.8,20.3,00.0,30.6,23.5,06.1,0000.0,0007.58,0004.27,0003.84
2022-12-20 11:57:00,,0828.8,5.03,0.00,21.8,20.3,00.0,30.6,23.5,06.2,0000.0,0007.29,0004.16,0003.73
2022-12-20 11:58:00,,0829.1,5.02,0.00,21.8,20.3,00.0,30.6,23.5,06.2,0000.0,0007.47,0004.04,0003.63
2022-12-20 11:59:00,,0828.8,4.96,0.00,21.7,20.3,00.0,30.6,23.5,06.1,0000.0,0007.28,0003.87,0003.49
